Regional Weather Roundup
Issued by NWS

Home | Current Version | Previous Version | Graphics & Text | Print | Product List | Glossary On
Versions: 1 2 3 4 5 6 7 8 9 10 11 12 13 14 15 16 17 18 19 20 21 22 23 24 25 26 27 28 29 30 31 32 33 34 35 36 37 38 39 40 41 42 43 44 45 46 47 48 49 50
000
ASUS44 KMEG 030510
RWRTN
TENNESSEE HOURLY STATE WEATHER ROUNDUP
NATIONAL WEATHER SERVICE MEMPHIS TN
1200 AM CDT SUN MAY 03 2015

TNZ002-004-019-021-049-052-054-088>092-030600-
WEST TENNESSEE

CITY           SKY/WX    TMP DP  RH WIND       PRES   REMARKS
MEMPHIS INTL   CLEAR     61  46  57 S7        30.06S
NWS MEMPHIS      N/A     55 N/A N/A MISG        N/A
JACKSON        CLEAR     51  48  89 CALM      30.06F
DYERSBURG      CLEAR     57  39  51 S5        30.06F
PARIS          CLEAR     52  46  82 CALM      30.07S
LEXINGTON      CLEAR     52  52 100 CALM      30.06S
$$

TNZ008-025-027-028-033-062-065-066-030600-
NORTH MIDDLE TENNESSEE

CITY           SKY/WX    TMP DP  RH WIND       PRES   REMARKS
NASHVILLE      CLEAR     56  50  80 S3        30.08F
CLARKSVILLE    CLEAR     56  50  80 CALM      30.06F
SMYRNA         CLEAR     52  50  93 CALM      30.09F
COOKEVILLE     CLEAR     46  45  93 CALM      30.09S
CROSSVILLE     CLEAR     52  42  69 CALM      30.13F
$$

TNZ061-075-076-078-094-096-097-030600-
SOUTH MIDDLE TENNESSEE

CITY           SKY/WX    TMP DP  RH WIND       PRES   REMARKS
FAYETTEVILLE   CLEAR     54  48  82 CALM      30.09F
TULLAHOMA      CLEAR     52  46  82 CALM      30.11S
WINCHESTER     CLEAR     52  48  87 CALM      30.10F
MCMINNVILLE    CLEAR     50  48  93 CALM      30.10S
COLUMBIA       CLEAR     54  50  87 CALM      30.07S
SHELBYVILLE    CLEAR     54  50  87 E3        30.10S
$$

TNZ017-018-042-046-047-030600-
NORTHEAST TENNESSEE

CITY           SKY/WX    TMP DP  RH WIND       PRES   REMARKS
TRI CITIES     CLEAR     46  40  79 CALM      30.14S
ELIZABETHTON   CLEAR     43  37  81 CALM      30.15S
$$

TNZ012-013-036-069-073-074-030600-
CENTRAL EAST TENNESSEE

CITY           SKY/WX    TMP DP  RH WIND       PRES   REMARKS
KNOXVILLE      CLEAR     54  47  77 CALM      30.10S
OAK RIDGE      CLEAR     53  48  83 CALM      30.12S
GATLINBURG     CLEAR     48  45  87 CALM      30.11S
MORRISTOWN     CLEAR     52  45  76 NE3       30.13R
$$

TNZ083-085-099-030600-
SOUTHEAST TENNESSEE

CITY           SKY/WX    TMP DP  RH WIND       PRES   REMARKS
CHATTANOOGA    CLEAR     59  51  75 CALM      30.10F
$$

SKY/WX REPORTED AS FAIR MEANS FEW OR NO CLOUDS BELOW
12 THOUSAND FEET.




USA.gov is the U.S. government's official web portal to all federal, state and local government web resources and services.